Location: Newark
(49.2191°N, 12.6671°E)
Time: 01:41:31
(UTC+00:00)

Transit 4A - Pass Details

Date: 02 February 2020
Orbit: 872 x 973 km, 66.8° (Epoch: 19 February)

Event Time Altitude Azimuth Distance (km) Brightness Sun altitude
Rises 05:33:22 0° 245° (WSW) 3,522 - -11.1°
Exits shadow 05:35:48 - 253° (WSW) 2,677 9.8 -10.7°
Reaches altitude 10° 05:36:07 10° 254° (WSW) 2,569 9.7 -10.7°
Maximum altitude 05:41:32 35° 320° (NW) 1,386 8.4 -9.8°
Drops below altitude 10° 05:46:53 10° 26° (NNE) 2,538 10.3 -9.0°
Sets 05:49:36 0° 36° (NE) 3,474 11.2 -8.5°
